This demonstration page uses our WeatherBlox Daily Observations layout. Learn more.

Left ArrowRight Arrow

39.01783, -85.05884

Hourly Observations for May 27, 2018

Temp ( °F °C ) Dew Point ( °F °C ) Humidity (%) Winds ( mph kmh ) Pressure ( in mb ) Visibility ( mi km ) Precip ( " mm )
12:52 am 00:52 Cloudy 73 22.8 66 18.9 79 79 ESE 3 6 29.86 1011 10 16 0.00 0.00
1:38 am 01:38 Cloudy with Thunderstorms 70 21.1 67 19.4 90 90 SE 5 7 29.85 1011 5 8 0.07 1.78
1:52 am 01:52 Cloudy with Thunderstorms 70 21.1 67 19.4 90 90 S 8 13 29.84 1011 9 14 0.07 1.78
2:15 am 02:15 Mostly Cloudy 70 21.1 68 20 93 93 S 9 15 29.85 1011 7 11 0.00 0.03
2:30 am 02:30 Cloudy with Thunderstorms 70 21.1 69 20.6 97 97 S 9 15 29.85 1011 7 11 0.01 0.25
2:52 am 02:52 Mostly Cloudy with Light Rain 70 21.1 68 20 93 93 SSW 8 13 29.83 1010 9 14 0.01 0.25
3:52 am 03:52 Mostly Cloudy 71 21.7 68 20 90 90 SW 7 11 29.84 1010 10 16 0.00 0.03
4:52 am 04:52 Partly Cloudy 68 20 66 18.9 93 93 SW 3 6 29.85 1011 7 11 0.00 0.00
5:52 am 05:52 Mostly Cloudy 67 19.4 65 18.3 93 93 SSW 3 6 29.85 1011 10 16 0.00 0.00
6:52 am 06:52 Cloudy 68 20 66 18.9 93 93 SSW 5 7 29.87 1012 8 13 0.00 0.00
7:52 am 07:52 Mostly Cloudy 69 20.6 66 18.9 90 90 WSW 3 6 29.91 1013 9 14 0.00 0.00
8:52 am 08:52 Cloudy 71 21.7 66 18.9 84 84 Calm 29.92 1013 10 16 0.00 0.00
9:52 am 09:52 Mostly Cloudy 73 22.8 67 19.4 81 81 S 7 11 29.92 1013 10 16 0.00 0.00
10:52 am 10:52 Partly Cloudy 78 25.6 68 20 71 71 SW 6 9 29.91 1013 10 16 0.00 0.00
11:52 am 11:52 Mostly Sunny 82 27.8 70 21.1 67 67 SW 5 7 29.91 1013 10 16 0.00 0.00
12:52 pm 12:52 Partly Cloudy 83 28.3 71 21.7 67 67 SSE 7 11 29.91 1013 10 16 0.00 0.00
1:52 pm 13:52 Partly Cloudy 85 29.4 69 20.6 59 59 S 8 13 29.89 1012 10 16 0.00 0.00
2:52 pm 14:52 Partly Cloudy 85 29.4 68 20 57 57 Calm 29.88 1012 10 16 0.00 0.00
3:52 pm 15:52 Partly Cloudy 87 30.6 67 19.4 51 51 SSW 3 6 29.87 1012 10 16 0.00 0.00
4:52 pm 16:52 Partly Cloudy 86 30 66 18.9 51 51 N 6 9 29.87 1011 10 16 0.00 0.00
5:52 pm 17:52 Partly Cloudy with Nearby Thunderstorms 83 28.3 67 19.4 59 59 SSE 9 15 29.88 1012 10 16 0.00 0.00
6:08 pm 18:08 Partly Cloudy 82 27.8 68 20 63 63 S 8 13 29.85 1011 10 16 0.00 0.00
6:52 pm 18:52 Mostly Cloudy 81 27.2 70 21.1 69 69 S 3 6 29.88 1012 10 16 0.00 0.00
7:52 pm 19:52 Mostly Cloudy 80 26.7 70 21.1 71 71 SSW 3 6 29.88 1012 10 16 0.00 0.00
8:52 pm 20:52 Mostly Cloudy 79 26.1 67 19.4 67 67 SSW 3 6 29.89 1012 10 16 0.00 0.00
9:52 pm 21:52 Mostly Cloudy 74 23.3 69 20.6 85 85 S 7 11 29.92 1013 10 16 0.00 0.00
10:52 pm 22:52 Mostly Cloudy 74 23.3 68 20 82 82 S 5 7 29.93 1014 10 16 0.00 0.00
11:52 pm 23:52 Mostly Cloudy 74 23.3 67 19.4 79 79 Calm 29.92 1013 10 16 0.00 0.00

Powered by AerisWeather